[[{"header":{"parameterUnit":"m.s-1","parameterCategory":1,"la1":30.2991,"la2":30.254,"lo1":-89.0895,"lo2":-89.0444,"dy":0.0017,"dx":0.0017,"nx":28,"ny":28,"refTime":"2024-04-19T21:00:00:Z","depth":0,"parameterNumber":2,"parameterNumberName":"U-component_of_WINDS"},"data":[0,0,0,0,0,0,0,0,0,0,0,0,0,0,0,0,0,0,0,0,0,0,0,0,0,0,0,0,0,0,0,0,0,0,0,0,0,0,0,0,0,0,0,0,0,0,0,0,0,0,0,0,0,0,0,0,0,0,0.0066,0.0067,0,0.0149,0.015,0.0151,0.0172,0.0172,0.0171,0.0171,0.0257,0.026,0.0262,0,0,0,0,0,0,0,0,0,0,0,0,0,-0.0076,-0.0074,0.0066,0.0067,0.0068,0.0149,0.015,0.0151,0.0172,0.0172,0.0171,0.0171,0.0256,0.0259,0.0263,0,0,0,0,0,0,0,0,0,0,0,0,0,-0.0006,-0.0073,0.0065,0.0088,0.0091,0.0149,0.015,0.0152,0.0173,0.0172,0.0171,0.017,0.0255,0.0259,0.0263,0.0304,0,0,0.0276,0.0278,0,0,0,0,0,0,0,0,-0.001,-0.0001,0.0084,0.0087,0.009,0.0149,0.0132,0.0203,0.0173,0.0142,0.0171,0.017,0.0222,0.0229,0.0246,0.0308,0.0312,0.0276,0.0279,0.028,0.0282,0,0,0,0,0,0,0,-0.0015,-0.0004,0.0099,0.0085,0.0089,0.0094,0.0103,0.0145,0.0185,0.0144,0.0146,0.0156,0.0223,0.0242,0.0248,0.0313,0.0276,0.028,0.0282,0.0284,0.0413,0.0414,0,0,0,0,0,0,-0.0023,-0.0008,0.0096,0.0101,0.0037,0.0097,0.0107,0.0131,0.0185,0.0192,0.0156,0.0156,0.0235,0.0243,0.0251,0.0303,0.028,0.0284,0.0287,0.0412,0.0413,0.0414,0,0,0,0,0,0,-0.0027,-0.0014,0.0093,0.0047,0.0061,0.01,0.0127,0.0133,0.0152,0.0194,0.0201,0.0168,0.0235,0.0245,0.0291,0.0307,0.0286,0.029,0.0411,0.0412,0.0414,0.0408,0,0,0,0,0,0,-0.0031,-0.0016,0.0001,0.0047,0.0063,0.0131,0.0128,0.0135,0.0159,0.016,0.0207,0.0214,0.0235,0.0284,0.0295,0.0312,0.0293,0.041,0.0412,0.0413,0.0407,0.0409,0.041,0,0,0,0,0,-0.0036,-0.0004,0.0002,0.0014,0.0085,0.0132,0.0141,0.0165,0.016,0.0177,0.0203,0.0212,0.0303,0.0289,0.0301,0.0319,0.0409,0.0411,0.0413,0.0406,0.0408,0.041,0,0,0,0,0,0,-0.0049,0.0003,0.0009,0.0057,0.009,0.0135,0.0158,0.0167,0.0202,0.0202,0.023,0.024,0.0283,0.0306,0.029,0.0362,0.0356,0.036,0.0346,0.0349,0.0351,0.0345,0.0297,0,0,0,0,0,-0.0046,-0.0012,0.0031,0.0069,0.0085,0.0118,0.014,0.0155,0.019,0.0204,0.0234,0.0268,0.0304,0.0327,0.0363,0.0409,0.0419,0.0427,0.0429,0.0431,0.0435,0.046,0.0465,0.0421,0.0421,0.0421,0,0,-0.004,-0.0008,0.0013,0.0067,0.0095,0.0129,0.013,0.0167,0.0193,0.021,0.0255,0.0278,0.0317,0.0363,0.0384,0.0383,0.0449,0.0433,0.0434,0.0438,0.0463,0.0467,0.0471,0.0422,0.0422,0.0422,0,0,-0.001,0.0017,0.0052,0.0079,0.012,0.0141,0.0149,0.0193,0.0208,0.0254,0.0267,0.0298,0.0359,0.0387,0.0408,0.0445,0.0455,0.0456,0.0467,0.0491,0.0495,0.0498,0.0511,0.0516,0.046,0.046,0.046,0,-0.0007,0.0045,0.0069,0.0105,0.0128,0.0144,0.018,0.0204,0.0255,0.027,0.0267,0.0344,0.0371,0.0424,0.0432,0.0449,0.046,0.0452,0.0492,0.0496,0.0499,0.0512,0.0517,0.0459,0.0459,0.0459,0.0459,0,0.0047,0.0083,0.0106,0.0154,0.018,0.0215,0.0243,0.0267,0.0279,0.03,0.0345,0.0379,0.0421,0.0434,0.0447,0.0488,0.0485,0.0486,0.0481,0.0503,0.0516,0.0521,0.0459,0.0459,0.0459,0.0459,0,0,0.0073,0.0132,0.014,0.0162,0.0207,0.0235,0.027,0.0311,0.033,0.0364,0.0394,0.0444,0.0446,0.047,0.0486,0.0507,0.0534,0.0506,0.0507,0.0511,0.0582,0.0581,0.0587,0.054,0.0541,0.0542,0.0578,0,0.0109,0.0173,0.0194,0.0248,0.0281,0.0296,0.0327,0.0357,0.0378,0.0409,0.0431,0.0466,0.0465,0.048,0.0501,0.0526,0.0549,0.0524,0.0569,0.057,0.056,0.0594,0.0594,0.0627,0.0584,0.0585,0.0585,0,0.016,0.0194,0.025,0.029,0.0305,0.0333,0.0371,0.04,0.0435,0.0448,0.0474,0.0488,0.0524,0.0515,0.0566,0.0548,0.0567,0.0582,0.0584,0.0591,0.058,0.0602,0.0639,0.0644,0.0593,0.0593,0.0592,0,0.0174,0.0234,0.0275,0.0293,0.034,0.0359,0.038,0.0413,0.0436,0.0469,0.0484,0.0521,0.0541,0.0569,0.0592,0.0583,0.064,0.0633,0.0653,0.0652,0.0666,0.0665,0.0707,0.0676,0.0676,0.0675,0.0675,0,0.0213,0.0247,0.0282,0.0308,0.0347,0.0369,0.0407,0.0428,0.0457,0.0487,0.0501,0.0528,0.0556,0.0586,0.0604,0.0643,0.0652,0.0664,0.0669,0.0664,0.0662,0.0678,0.0677,0.0677,0.0677,0.0676,0.0676,0,0.0237,0.0261,0.0308,0.0348,0.0359,0.0386,0.042,0.0445,0.0465,0.0502,0.0512,0.0543,0.058,0.0605,0.0652,0.0663,0.0707,0.071,0.0695,0.0698,0.0716,0.0715,0.0771,0.078,0.0741,0.0741,0.0742,0,0.0261,0.0287,0.033,0.0351,0.0372,0.0405,0.0428,0.0451,0.0474,0.0514,0.0534,0.0572,0.0603,0.0661,0.0688,0.0723,0.0729,0.0746,0.0734,0.0728,0.073,0.0729,0.0732,0.0748,0.0749,0.0749,0.0749,0,0.0301,0.0311,0.0344,0.0381,0.0408,0.0438,0.0468,0.0484,0.0511,0.0536,0.0574,0.0598,0.0646,0.0683,0.072,0.0741,0.075,0.0752,0.0759,0.0755,0.0746,0.0752,0.0702,0.0751,0.0751,0.0751,0.0751,0.0751,0.0326,0.035,0.0384,0.042,0.0445,0.0472,0.0497,0.052,0.0552,0.0592,0.0603,0.0642,0.0674,0.0726,0.0747,0.0777,0.0775,0.0785,0.0787,0.079,0.079,0.0739,0.0784,0.0784,0.0784,0.0784,0.0784,0,0.0368,0.039,0.0422,0.0464,0.0491,0.0496,0.0529,0.0552,0.0586,0.0615,0.0645,0.0688,0.0723,0.0752,0.0788,0.0807,0.0812,0.0816,0.0816,0.082,0.0789,0.0781,0.0811,0.0811,0.0811,0.0811,0.0811,0.0811,0.0393,0.0434,0.0448,0.0502,0.0523,0.0562,0.058,0.0605,0.0628,0.0675,0.0705,0.0723,0.0752,0.079,0.0822,0.0829,0.0842,0.0846,0.0854,0.0825,0.0822,0.082,0.0811,0.0848,0.0848,0.0883,0.0883,0.0883]},{"header":{"parameterUnit":"m.s-1","parameterCategory":1,"la1":30.2991,"la2":30.254,"lo1":-89.0895,"lo2":-89.0444,"dy":0.0017,"dx":0.0017,"nx":28,"ny":28,"refTime":"2024-04-19T21:00:00:Z","depth":0,"parameterNumber":3,"parameterNumberName":"V-component_of_WINDS"},"data":[0,0,0,0,0,0,0,0,0,0,0,0,0,0,0,0,0,0,0,0,0,0,0,0,0,0,0,0,0,0,0,0,0,0,0,0,0,0,0,0,0,0,0,0,0,0,0,0,0,0,0,0,0,0,0,0,0,0,3.8077,3.8077,0,3.805,3.805,3.805,3.8068,3.8069,3.807,3.8071,3.8039,3.8037,3.8036,0,0,0,0,0,0,0,0,0,0,0,0,0,3.8143,3.8141,3.8077,3.8077,3.8077,3.805,3.805,3.8049,3.8068,3.8069,3.807,3.8071,3.804,3.8038,3.8036,0,0,0,0,0,0,0,0,0,0,0,0,0,3.8115,3.8141,3.8077,3.8083,3.8083,3.805,3.805,3.8049,3.8068,3.8069,3.807,3.8071,3.804,3.8038,3.8035,3.7995,0,0,3.8028,3.8027,0,0,0,0,0,0,0,0,3.8116,3.8112,3.8082,3.8082,3.8082,3.8064,3.8061,3.8031,3.8067,3.8073,3.8071,3.8072,3.8046,3.8043,3.8035,3.7993,3.7992,3.8028,3.8026,3.8025,3.8024,0,0,0,0,0,0,0,3.8118,3.8113,3.8066,3.8082,3.8082,3.8086,3.8083,3.8056,3.8053,3.8073,3.8074,3.8071,3.8046,3.8037,3.8035,3.7991,3.8028,3.8026,3.8024,3.8023,3.7916,3.7915,0,0,0,0,0,0,3.812,3.8115,3.8067,3.8066,3.8103,3.8083,3.8081,3.8068,3.8053,3.8052,3.807,3.8072,3.8041,3.8037,3.8033,3.7986,3.8025,3.8023,3.8021,3.7918,3.7916,3.7915,0,0,0,0,0,0,3.8121,3.8115,3.8068,3.8091,3.8085,3.8081,3.8067,3.8067,3.8058,3.8051,3.805,3.8062,3.8042,3.8037,3.8005,3.7985,3.8022,3.802,3.7919,3.7917,3.7915,3.7889,0,0,0,0,0,0,3.8123,3.8116,3.8101,3.809,3.8084,3.8041,3.8066,3.8066,3.8055,3.8057,3.8043,3.8042,3.8042,3.8008,3.8002,3.7982,3.8018,3.7921,3.7918,3.7916,3.7892,3.7886,3.7882,0,0,0,0,0,3.8125,3.8093,3.81,3.8094,3.8065,3.8039,3.8036,3.8038,3.8053,3.8037,3.8033,3.8042,3.7988,3.8005,3.7998,3.7977,3.7922,3.7919,3.7916,3.7894,3.7887,3.7882,0,0,0,0,0,0,3.81,3.8092,3.8099,3.8063,3.8052,3.8043,3.8023,3.8031,3.8015,3.8017,3.802,3.8017,3.7984,3.7977,3.7996,3.7938,3.7958,3.7953,3.7943,3.7937,3.7932,3.7934,3.8016,0,0,0,0,0,3.809,3.8071,3.8065,3.8034,3.8028,3.8027,3.8015,3.8019,3.8007,3.8002,3.7995,3.7982,3.7963,3.7949,3.7931,3.7891,3.7889,3.7874,3.7869,3.7865,3.786,3.784,3.7833,3.7905,3.7905,3.7905,0,0,3.8069,3.8063,3.805,3.8028,3.802,3.8,3.8022,3.7999,3.7984,3.7998,3.7968,3.7962,3.7949,3.7913,3.7897,3.7906,3.7841,3.7861,3.7858,3.7855,3.7836,3.7829,3.7823,3.7902,3.7903,3.7903,0,0,3.8021,3.8015,3.7988,3.798,3.7969,3.7968,3.7962,3.7952,3.795,3.792,3.793,3.7912,3.7878,3.7868,3.7858,3.7809,3.7817,3.7803,3.7777,3.7757,3.7751,3.7746,3.7729,3.7723,3.7799,3.7799,3.7799,0,3.7997,3.7968,3.7973,3.795,3.7941,3.7954,3.7928,3.7919,3.7901,3.7894,3.7905,3.7864,3.7856,3.7819,3.7807,3.7799,3.7791,3.7804,3.7752,3.7747,3.7742,3.7726,3.7719,3.7797,3.7797,3.7798,3.7798,0,3.7938,3.7918,3.7898,3.7882,3.787,3.7845,3.7847,3.7834,3.7839,3.7837,3.7807,3.7798,3.7778,3.777,3.7774,3.7734,3.774,3.7752,3.7772,3.7734,3.7718,3.7712,3.7795,3.7795,3.7796,3.7796,0,0,3.7871,3.7861,3.7854,3.7847,3.7836,3.782,3.7796,3.7779,3.7768,3.7756,3.7735,3.7708,3.7719,3.7708,3.7711,3.7694,3.7656,3.7708,3.7707,3.7698,3.7612,3.7603,3.7596,3.7662,3.7661,3.766,3.7613,0,3.7823,3.7782,3.7788,3.7749,3.773,3.7744,3.7723,3.7714,3.7712,3.7696,3.7694,3.7674,3.769,3.7684,3.7668,3.7664,3.7639,3.7668,3.7643,3.7642,3.7645,3.7588,3.7578,3.7534,3.7607,3.7606,3.7606,0,3.776,3.7748,3.7707,3.7701,3.7693,3.7675,3.766,3.7644,3.7634,3.7634,3.7624,3.763,3.7606,3.7628,3.7595,3.7614,3.7605,3.7602,3.76,3.7597,3.7621,3.7583,3.752,3.7514,3.7596,3.7597,3.7597,0,3.7716,3.7689,3.7662,3.7656,3.7647,3.7634,3.763,3.7621,3.7611,3.7598,3.7591,3.7575,3.7566,3.7553,3.7555,3.7571,3.7522,3.7543,3.7521,3.7521,3.7509,3.7509,3.7443,3.7503,3.7503,3.7503,3.7504,0,3.7661,3.7636,3.7642,3.7625,3.7597,3.7604,3.7576,3.7573,3.7566,3.7549,3.7559,3.7543,3.7547,3.753,3.7532,3.7504,3.75,3.7499,3.75,3.7498,3.7498,3.7491,3.7494,3.7502,3.7502,3.7502,3.7503,0,3.7606,3.761,3.7581,3.7576,3.7574,3.7554,3.755,3.7534,3.7534,3.7512,3.7507,3.7507,3.7488,3.7489,3.7467,3.7469,3.7435,3.7439,3.7439,3.7439,3.7417,3.7419,3.7344,3.7335,3.7401,3.74,3.7399,0,3.7571,3.7552,3.7546,3.7536,3.7531,3.7514,3.7505,3.7511,3.75,3.7489,3.7474,3.7457,3.7443,3.7412,3.741,3.7393,3.7397,3.7372,3.7395,3.7394,3.7397,3.7398,3.7397,3.7367,3.7367,3.7366,3.7365,0,3.7508,3.7511,3.7497,3.7484,3.7472,3.7462,3.7452,3.7443,3.7449,3.7436,3.7418,3.7407,3.7387,3.7369,3.7354,3.7349,3.7358,3.7359,3.7353,3.735,3.7351,3.7351,3.7426,3.736,3.7361,3.7361,3.7361,3.7361,3.7462,3.7446,3.744,3.7425,3.7419,3.741,3.7395,3.7395,3.738,3.7364,3.7369,3.7348,3.734,3.7321,3.7315,3.7299,3.7308,3.7299,3.7297,3.7295,3.7292,3.7354,3.7296,3.7296,3.7296,3.7297,3.7297,0,3.74,3.7397,3.7383,3.737,3.7358,3.737,3.736,3.7349,3.7331,3.7323,3.7311,3.729,3.7274,3.7271,3.7256,3.7243,3.7247,3.7239,3.724,3.7239,3.7285,3.7292,3.7236,3.7236,3.7236,3.7236,3.7236,3.7236,3.7366,3.734,3.7343,3.7315,3.7312,3.7293,3.7287,3.728,3.7274,3.7251,3.7238,3.7237,3.7231,3.7216,3.7201,3.7201,3.7195,3.7185,3.7186,3.7229,3.7235,3.7241,3.7247,3.7184,3.7184,3.7141,3.7141,3.7141]}]]